User: anonymous   Login
Location: *
(33.8649°S, 62.1526°E)
Time: 00:37:17
(UTC+00:00)
Language:

SL-16 R/B - Orbit

View from above orbital plane
View from above orbital plane
View from above satellite
View from above satellite

Ground track
Ground track

The orbit data is extracted from the following two-line orbital elements,

1 31793U 07029B   21104.83069955  .00000278  00000-0  17015-3 0  9998
2 31793  70.9763 333.2746 0002082 252.6021 184.9358 14.14442625712343
Epoch (UTC): 14 April 2021 19:56:12
Eccentricity: 0.0002082
inclination: 70.9763°
perigee height: 843 km
apogee height: 846 km
right ascension of ascending node: 333.2746°
argument of perigee: 252.6021°
revolutions per day: 14.14442625
mean anomaly at epoch: 184.9358°
orbit number at epoch: 71234

The dashed part of the orbit path shows where the satellite is in the earth's shadow,  

DLR